Location: Aurotschnitz
(49.8060°N, 14.6270°E)
Time: 14:00:16
(UTC+00:00)

Daily predictions for brighter satellites

Satellite Brightness Start Highest point End
(mag) Time Altitude Azimuth Time Altitude Azimuth Time Altitude Azimuth
Cosmos 1908 Rocket 3.9 19:53:36 10° N 19:57:50 51° ENE 20:02:02 10° SSE
Cosmos 1300 4.2 19:56:58 10° NNW 20:00:12 33° W 20:03:24 10° SSW
SL-16 R/B 4.2 19:56:49 10° N 20:00:52 19° NE 20:04:55 10° E
Cosmos 1570 Rocket 4.1 19:56:28 10° NNW 20:01:52 85° ENE 20:07:13 10° SSE
Cosmos 2237 Rocket 3.0 19:57:09 10° NNW 20:02:31 41° NE 20:07:51 10° ESE
Cosmos 1408 4.3 20:01:34 10° ESE 20:02:54 12° E 20:04:14 10° ENE
Aureole 3 4.1 19:58:10 10° S 20:02:56 88° E 20:08:56 10° N
CZ-4C R/B 3.6 19:59:08 10° NNE 20:03:17 78° WNW 20:07:19 10° SSW
Cosmos 2333 Rocket 3.9 19:59:46 10° NW 20:04:41 30° WSW 20:09:35 10° SSW
Cosmos 2227 Rocket 3.9 20:06:47 10° SE 20:09:38 14° E 20:12:28 10° ENE
ATLAS 2AS CENTAUR R/B 4.2 20:05:00 10° WNW 20:10:32 27° WSW 20:15:56 10° SSW
NOSS 0 Rocket 4.0 20:10:27 10° NNW 20:16:44 79° ENE 20:22:55 10° SE
Cosmos 1980 4.2 20:11:46 10° NNW 20:17:20 53° NE 20:22:53 10° SE
Cosmos 2322 4.1 20:13:02 10° NW 20:18:39 63° WSW 20:24:13 10° SSE
SJ 16-02 2.7 20:15:48 10° SW 20:19:54 42° WNW 20:24:04 10° N
Landsat 4 3.4 20:19:40 10° SSE 20:23:06 84° ENE 20:26:33 10° NNW
COSMOS 2455 3.0 20:17:37 10° SSW 20:23:29 56° ESE 20:29:23 10° NE
Spot 2 Rocket 3.6 20:19:08 10° SSE 20:24:13 79° WSW 20:29:21 10° NNW
Cosmos 1455 2.1 20:21:29 10° NNW 20:25:01 74° W 20:28:31 10° S
GP-B 4.0 20:21:52 10° NNE 20:25:53 33° E 20:29:30 12° SSE
Cosmos 2297 Rocket 2.9 20:22:50 10° S 20:27:55 35° ESE 20:33:01 10° NE
Landsat 5 4.1 20:24:07 10° NNE 20:28:01 38° E 20:31:54 11° SSE
Cosmos 1174 4.4 20:23:03 10° NNW 20:28:02 60° NE 20:31:42 12° SE
Okean 2 3.5 20:24:28 10° SSW 20:28:28 77° W 20:32:31 10° N
Okean 1-7 3.2 20:24:40 10° SSW 20:28:59 77° W 20:33:18 10° N
SeaSat 1 2.5 20:24:21 11° SE 20:29:06 85° ENE 20:34:03 10° NNW
ARIANE 5 R/B 4.3 20:26:42 10° ESE 20:30:03 22° ENE 20:33:26 10° N
NOSS 8 (F) 4.5 20:28:44 10° SW 20:32:37 83° NW 20:35:43 10° NE
SPOT 3 Rocket 3.7 20:27:38 10° S 20:32:48 78° WSW 20:38:01 10° NNW
Cosmos 2219 Rocket 3.7 20:28:16 10° NW 20:33:09 30° WSW 20:38:03 10° SSW
Cosmos 158 Rocket 4.1 20:29:43 10° NNW 20:34:58 73° WSW 20:39:46 11° SSE
MetOp-A 4.2 20:31:43 12° SSE 20:36:33 63° ENE 20:41:37 10° N
CENTAUR R/B 3.5 20:35:25 11° SSE 20:39:35 25° ESE 20:44:48 10° ENE
Cosmos 1703 Rocket 3.6 20:37:06 10° S 20:41:32 87° W 20:46:00 10° N
Cosmos 1745 Rocket 4.2 20:39:01 10° S 20:45:16 63° E 20:51:33 10° NNE
Cosmos 2208 Rocket 4.4 20:41:53 10° NNW 20:46:57 56° WSW 20:51:41 12° S
Nadezhda 1 Rocket 4.0 20:41:06 10° N 20:47:23 83° E 20:53:01 13° S
Cosmos 2263 Rocket 4.2 20:46:35 10° ESE 20:47:34 10° E 20:48:33 10° E
Cosmos 371 Rocket 3.3 20:43:44 10° S 20:48:27 62° ESE 20:53:15 10° NNE
Ariane Rocket 3.6 20:44:49 10° S 20:49:46 52° W 20:54:45 10° NNW
Spot 1 4.4 20:45:15 10° NNE 20:50:00 67° ESE 20:54:56 10° S
Cosmos 1242 Rocket 3.1 20:48:15 10° SSW 20:50:49 39° WNW 20:53:24 10° N
CZ-4C R/B 1.8 20:47:03 10° SW 20:51:34 78° SE 20:57:20 10° NE
Meteor 1-24 Rocket 4.4 20:50:34 14° SSE 20:54:50 38° E 20:59:52 10° NNE
Terra 3.1 20:50:47 10° SSW 20:55:06 36° W 20:59:28 10° NNW
Cosmos 1486 Rocket 4.0 20:56:28 10° SSW 21:01:39 87° ESE 21:06:55 10° NNE
NOSS 3 (A) 2.9 21:03:28 36° SW 21:03:56 75° NW 21:05:30 10° NE
Cosmos 1953 4.1 21:02:11 10° NNW 21:05:21 25° W 21:08:30 10° SW
USA 234 3.4 20:59:15 10° ENE 21:05:34 48° SE 21:11:51 10° SSW
COSMOS 2428 3.9 21:02:48 10° NW 21:07:53 34° WSW 21:12:54 10° S
ALOS 2 4.4 21:09:12 10° ESE 21:12:31 21° ENE 21:15:51 10° NNE
Cosmos 304 Rocket 3.7 21:10:18 10° SSW 21:15:03 88° ESE 21:19:51 10° NNE
USA 281 3.7 21:09:22 13° SE 21:15:06 56° NE 21:21:32 10° NNW
Cosmos 405 Rocket 3.0 21:11:48 10° N 21:15:31 54° ENE 21:17:44 22° SE
BREEZE-M DEB (TANK) 3.3 21:14:52 10° W 21:17:44 88° S 21:25:38 10° E
Cosmos 2181 Rocket 4.4 21:13:58 10° N 21:20:00 52° ENE 21:24:25 18° SE
Cosmos 1354 Rocket 4.0 21:19:10 13° S 21:23:54 67° ESE 21:29:09 10° NNE
BlueWalker 3 2.9 21:20:36 10° W 21:24:15 49° N 21:27:54 10° ENE
CZ-2C R/B 3.8 21:23:43 10° NNE 21:28:06 57° E 21:30:58 21° S
SL-4 R/B 4.2 21:30:06 10° WSW 21:31:18 11° SW 21:32:19 10° SSW
Cosmos 2221 Rocket 4.5 21:30:14 21° SE 21:32:28 35° E 21:36:30 10° NNE
Okean 1 Rocket 4.1 21:30:21 10° N 21:34:24 35° ENE 21:36:59 19° SE
Cosmos 1408 3.5 21:32:50 13° SW 21:35:14 35° WNW 21:38:02 10° N
Cosmos 2098 Rocket 3.9 21:28:56 10° N 21:35:29 85° E 21:39:37 21° S
Cosmos 2084 Rocket 3.9 21:31:20 10° WSW 21:35:34 60° NW 21:39:38 10° NE
Sich 1 Rocket 3.9 21:32:57 10° N 21:37:16 55° ENE 21:39:46 24° SSE
Cosmos 2242 Rocket 4.1 21:35:52 13° SSW 21:39:52 61° WNW 21:44:25 10° N
Cosmos 1709 Rocket 4.2 21:38:03 13° SSW 21:43:53 75° W 21:50:13 10° N
Cosmos 332 Rocket 3.8 21:41:28 17° SSW 21:45:10 76° ESE 21:50:05 10° NNE
SL-16 R/B 2.3 21:40:18 10° NNW 21:46:01 73° ENE 21:50:00 20° SE
Cosmos 2237 Rocket 3.0 21:41:20 10° NW 21:46:36 40° WSW 21:50:16 18° SSW
Cosmos 1025 Rocket 4.4 21:47:07 19° SE 21:48:55 24° E 21:52:24 10° NE
NOSS 3-2 (A) 3.5 21:48:36 21° S 21:51:47 45° ESE 21:57:34 10° NE
Cosmos 2227 Rocket 2.1 21:47:45 14° SSW 21:52:43 80° ESE 21:58:26 10° NNE
Cosmos 2082 4.5 21:54:18 23° SSE 21:56:57 35° ESE 22:01:59 10° NE
H-2A R/B 2.5 21:56:06 27° SSE 21:58:21 79° ENE 22:02:31 10° NNW
SL-12 R/B(2) 4.4 21:52:02 10° SSW 21:59:53 64° ESE 22:09:31 10° NE
Cosmos 1455 Rocket 4.4 21:58:36 10° N 22:02:35 31° ENE 22:05:09 18° ESE
NOSS 3-2 (C) 4.2 22:02:06 22° SE 22:03:54 26° ESE 22:08:46 10° ENE
Meteor 2-5 Rocket 4.1 21:59:20 14° SSW 22:04:20 66° WNW 22:10:04 10° N
Cosmos 1378 Rocket 3.5 22:02:31 25° S 22:05:04 87° W 22:09:32 10° N
ARIANE 5 R/B 3.2 22:03:45 23° SSW 22:06:09 49° W 22:10:25 10° NNW
SeaSat 1 4.5 22:04:02 10° SW 22:07:07 17° WSW 22:10:15 10° WNW
Cosmos 1825 1.8 22:06:40 36° S 22:07:56 76° E 22:11:22 10° NNE
COSMOS 2455 4.3 22:04:05 10° WSW 22:09:41 38° NW 22:15:19 10° NNE
Cosmos 1674 Rocket 3.4 22:07:23 27° S 22:09:43 88° ESE 22:14:04 10° N
Cosmos 2297 Rocket 3.2 22:06:25 10° SW 22:11:50 46° NW 22:17:18 10° NNE
Cosmos 2184 Rocket 4.1 22:08:10 23° S 22:12:15 67° E 22:18:35 10° NNE
Spot 4 3.8 22:10:06 27° SSE 22:12:46 84° WSW 22:17:38 10° NNW
Cosmos 1538 Rocket 4.1 22:14:48 10° NNW 22:20:00 68° WSW 22:22:52 27° S
Cosmos 2219 3.1 22:23:57 20° SSW 22:27:53 83° ESE 22:33:33 10° NNE
Cosmos 1461 2.7 22:26:32 33° SSW 22:28:05 61° SE 22:31:55 10° NE
Orbus 7S? 3.5 22:26:18 10° NW 22:28:57 45° NNE 22:31:37 11° ESE
CENTAUR R/B 2.7 22:23:27 10° SW 22:29:16 79° NW 22:36:37 10° NE
Cosmos 1818 3.6 22:24:16 10° NW 22:29:45 72° SW 22:32:53 26° SSE
Cosmos 2263 Rocket 2.2 22:27:07 25° S 22:30:21 65° ESE 22:35:53 10° NNE
Cosmos 2154 Rocket 4.0 22:27:17 25° S 22:31:10 75° E 22:37:30 10° NNE
Cosmos 2151 Rocket 4.5 22:27:29 10° NNW 22:31:34 39° W 22:33:47 23° SW
Cosmos 1892 3.2 22:31:14 26° SW 22:32:53 46° WNW 22:36:19 10° N
Cosmos 1937 Rocket 4.1 22:31:10 26° SSE 22:33:32 42° ESE 22:38:26 10° NE
Okean 2 Rocket 4.0 22:31:49 10° NNW 22:36:01 39° W 22:38:18 23° SW
Meteor 2-11 Rocket 4.4 22:35:10 25° S 22:38:48 75° E 22:44:56 10° NNE
PSLV R/B 3.8 22:35:39 10° NNE 22:39:46 53° E 22:41:24 32° SSE
CZ-4C R/B 4.0 22:36:05 10° W 22:40:38 32° NNW 22:46:16 10° NE
Cosmos 1844 Rocket 4.3 22:44:32 16° SE 22:46:48 20° E 22:50:47 10° NE
Cosmos 923 Rocket 3.9 22:41:39 10° NNW 22:46:56 87° WSW 22:49:49 27° SSE
ALOS 2 3.0 22:46:36 29° SSW 22:48:32 52° W 22:52:50 10° NNW
USA 234 3.5 22:42:17 10° ENE 22:48:50 73° NNW 22:55:20 10° WSW
Cosmos 1898 Rocket 3.4 22:48:08 27° SSW 22:50:57 77° ESE 22:56:08 10° NNE
Cosmos 292 Rocket 3.8 22:49:43 25° SSW 22:52:34 78° WNW 22:57:25 10° NNE
H-2A R/B 2.4 22:51:27 10° NNE 22:55:30 47° E 22:57:02 31° SSE
USA 281 4.0 22:56:14 22° SSW 22:59:50 37° WSW 23:05:53 10° NW
BlueWalker 3 2.2 22:59:00 10° WNW 23:02:44 67° NNE 23:06:28 10° E
Cosmos 2074 Rocket 4.4 22:58:51 19° SSW 23:03:12 55° WNW 23:09:21 10° N
Cosmos 921 Rocket 4.5 22:59:37 10° N 23:03:23 30° ENE 23:06:40 12° ESE
Aureole 1 Rocket 3.6 23:05:07 22° SW 23:07:41 59° WNW 23:12:58 10° NNE
USA 238 DEB 4.0 23:08:11 26° S 23:11:19 45° ESE 23:17:38 10° NE
USA 238 4.0 23:08:14 26° S 23:11:22 45° ESE 23:17:41 10° NE
In-Cosmos 22 Rocket 4.3 23:10:01 27° S 23:13:22 82° E 23:19:13 10° NNE
Cosmos 1869 3.3 23:10:30 10° N 23:14:12 66° ENE 23:15:40 34° SSE
Cosmos 1544 Rocket 3.8 23:11:35 10° N 23:16:00 61° ENE 23:18:17 27° SSE
Cosmos 1900 4.3 23:18:28 24° SW 23:21:35 88° SE 23:26:41 10° NE
Cosmos 1867 3.8 23:19:03 28° S 23:21:44 54° ESE 23:27:04 10° NE
Cosmos 1680 Rocket 3.7 23:20:35 10° NNW 23:25:42 57° WSW 23:28:15 28° S
Cosmos 1025 Rocket 4.1 23:23:54 21° SW 23:26:15 37° WNW 23:30:16 10° N
SL-16 R/B 3.7 23:25:21 10° NW 23:29:32 22° W 23:31:50 17° SW
Cosmos 372 Rocket 4.3 23:26:39 21° SW 23:30:02 62° WNW 23:35:13 10° NNE
Cosmos 2112 Rocket 4.1 23:26:57 10° NNW 23:32:03 59° WSW 23:34:41 28° S
Cosmos 2341 Rocket 4.0 23:28:46 25° S 23:32:33 85° E 23:38:50 10° N
Cosmos 1975 Rocket 3.4 23:31:37 28° SSW 23:33:46 59° WNW 23:38:10 10° N
Cosmos 1606 2.5 23:30:58 10° NNW 23:34:33 69° W 23:35:43 39° SSW
Cosmos 1943 3.4 23:30:02 10° NW 23:35:30 54° WSW 23:38:26 26° S
Cosmos 1603 3.7 23:30:01 10° NNW 23:35:48 81° WSW 23:39:41 21° SSE
Cosmos 2227 Rocket 4.2 23:32:50 10° W 23:37:26 25° NW 23:42:04 10° NNE
Cosmos 1455 Rocket 4.2 23:36:23 10° NNW 23:40:19 31° W 23:42:11 22° SW
Cosmos 494 Rocket 4.0 23:35:29 10° NNW 23:40:46 82° ENE 23:44:30 20° SSE
Cosmos 2082 4.5 23:36:06 13° SW 23:40:54 47° NW 23:46:20 10° NNE
NOSS 3-2 (A) 4.3 23:37:17 10° WSW 23:42:34 47° NNW 23:48:55 10° NE
Helios 1A Rocket 3.6 23:42:09 18° SE 23:44:39 44° ENE 23:48:17 10° N
BREEZE-M DEB (TANK) 3.9 23:42:29 10° W 23:45:42 87° S 23:55:19 10° E
Cosmos 2366 rocket 4.0 23:45:43 25° S 23:49:39 88° WNW 23:55:53 10° N
Cosmos 1048 Rocket 4.1 23:48:33 10° NNW 23:53:50 78° ENE 23:58:07 16° SSE
Cosmos 2228 2.9 23:49:31 10° NNW 23:53:50 75° W 23:55:54 30° S
GEOS 3 Rocket 4.5 23:50:20 10° NE 23:55:00 34° ESE 23:57:27 22° SSE
ADEOS II 4.4 23:54:41 10° ENE 23:57:07 13° E 23:59:32 10° ESE
